• în Republica Moldova
  • Lista ţărilor
  • Pe 7 zile
  • Temperatura apei
  • Hartă satelitară
  • Meteo pe hartă
  • Widget-uri
  • user-avatar
    Intrare

    Meteo pe oră la Perth

    Astăzi, 22 Mai, Miercuri

    Timp Temperatura Precipitaţii Vânt Presiune Umiditate
    00:00 +16°C° 0 mm 2 m/s 766 mmHg 73%
    01:00 +15°C° 0 mm 2 m/s 766 mmHg 76%
    02:00 +14°C° 0 mm 2 m/s 766 mmHg 79%
    03:00 +14°C° 0 mm 2 m/s 765 mmHg 79%
    04:00 +14°C° 0 mm 2 m/s 765 mmHg 79%
    05:00 +13°C° 0 mm 2 m/s 765 mmHg 79%
    06:00 +14°C° 0 mm 2 m/s 765 mmHg 78%
    07:00 +14°C° 0 mm 2 m/s 766 mmHg 76%
    08:00 +15°C° 0 mm 2 m/s 766 mmHg 72%
    09:00 +17°C° 0 mm 2 m/s 766 mmHg 64%
    10:00 +20°C° 0 mm 1 m/s 765 mmHg 55%
    11:00 +20°C° 0 mm 0 m/s 765 mmHg 47%
    12:00 +23°C° 0 mm 1 m/s 765 mmHg 45%
    13:00 +23°C° 0 mm 2 m/s 764 mmHg 44%
    14:00 +23°C° 0 mm 1 m/s 763 mmHg 42%
    15:00 +23°C° 0 mm 2 m/s 764 mmHg 47%
    16:00 +21°C° 0 mm 3 m/s 764 mmHg 51%
    17:00 +20°C° 0 mm 3 m/s 764 mmHg 56%
    18:00 +19°C° 0 mm 3 m/s 764 mmHg 62%
    19:00 +18°C° 0 mm 3 m/s 764 mmHg 68%
    20:00 +17°C° 0 mm 3 m/s 764 mmHg 73%
    21:00 +16°C° 0 mm 2 m/s 765 mmHg 75%
    22:00 +16°C° 0 mm 2 m/s 765 mmHg 77%
    23:00 +16°C° 0 mm 2 m/s 765 mmHg 79%

    Mâine, 23 Mai, Joi

    Timp Temperatura Precipitaţii Vânt Presiune Umiditate
    00:00 +15°C° 0 mm 1 m/s 765 mmHg 79%
    01:00 +15°C° 0 mm 1 m/s 765 mmHg 79%
    02:00 +15°C° 0 mm 1 m/s 765 mmHg 79%
    03:00 +15°C° 0 mm 1 m/s 765 mmHg 80%
    04:00 +15°C° 0 mm 1 m/s 766 mmHg 80%
    05:00 +15°C° 0 mm 1 m/s 766 mmHg 80%
    06:00 +15°C° 0 mm 1 m/s 766 mmHg 79%
    07:00 +15°C° 0 mm 1 m/s 766 mmHg 77%
    08:00 +16°C° 0 mm 1 m/s 766 mmHg 76%
    09:00 +18°C° 0 mm 1 m/s 767 mmHg 70%
    10:00 +20°C° 0 mm 1 m/s 767 mmHg 63%
    11:00 +22°C° 0 mm 1 m/s 767 mmHg 57%
    12:00 +22°C° 0 mm 1 m/s 767 mmHg 56%
    13:00 +21°C° 0 mm 2 m/s 766 mmHg 55%
    14:00 +22°C° 0 mm 3 m/s 766 mmHg 54%
    15:00 +21°C° 0 mm 3 m/s 766 mmHg 56%
    16:00 +20°C° 0 mm 2 m/s 766 mmHg 59%
    17:00 +20°C° 0 mm 2 m/s 766 mmHg 62%
    18:00 +19°C° 0 mm 2 m/s 766 mmHg 67%
    19:00 +18°C° 0 mm 2 m/s 766 mmHg 71%
    20:00 +17°C° 0 mm 2 m/s 767 mmHg 76%
    21:00 +16°C° 0 mm 2 m/s 767 mmHg 78%
    22:00 +16°C° 0 mm 1 m/s 767 mmHg 80%
    23:00 +15°C° 0 mm 1 m/s 767 mmHg 82%

    Poimâine, 24 Mai, Vineri

    Timp Temperatura Precipitaţii Vânt Presiune Umiditate
    00:00 +15°C° 0 mm 1 m/s 767 mmHg 83%
    01:00 +15°C° 0 mm 1 m/s 767 mmHg 84%
    02:00 +14°C° 0 mm 1 m/s 767 mmHg 85%
    03:00 +14°C° 0 mm 1 m/s 767 mmHg 86%
    04:00 +14°C° 0 mm 1 m/s 767 mmHg 87%
    05:00 +14°C° 0 mm 1 m/s 766 mmHg 88%
    06:00 +14°C° 0 mm 1 m/s 767 mmHg 87%
    07:00 +14°C° 0 mm 1 m/s 767 mmHg 86%
    08:00 +14°C° 0 mm 1 m/s 767 mmHg 86%
    09:00 +16°C° 0 mm 1 m/s 767 mmHg 76%
    10:00 +19°C° 0 mm 1 m/s 767 mmHg 66%
    11:00 +21°C° 0 mm 1 m/s 767 mmHg 56%
    12:00 +21°C° 0 mm 2 m/s 767 mmHg 55%
    13:00 +21°C° 0 mm 3 m/s 766 mmHg 53%
    14:00 +22°C° 0 mm 3 m/s 766 mmHg 51%
    15:00 +21°C° 0 mm 3 m/s 766 mmHg 55%
    16:00 +20°C° 0 mm 3 m/s 766 mmHg 59%
    17:00 +19°C° 0 mm 3 m/s 766 mmHg 63%
    18:00 +18°C° 0 mm 3 m/s 766 mmHg 67%
    19:00 +17°C° 0 mm 2 m/s 767 mmHg 72%
    20:00 +16°C° 0 mm 2 m/s 767 mmHg 76%
    21:00 +16°C° 0 mm 2 m/s 767 mmHg 78%
    22:00 +16°C° 0 mm 2 m/s 768 mmHg 80%
    23:00 +15°C° 0 mm 2 m/s 768 mmHg 83%

    25 Mai, Sâmbătă

    Timp Temperatura Precipitaţii Vânt Presiune Umiditate
    00:00 +15°C° 0 mm 2 m/s 768 mmHg 84%
    01:00 +15°C° 0 mm 2 m/s 767 mmHg 85%
    02:00 +14°C° 0 mm 2 m/s 767 mmHg 87%
    03:00 +14°C° 0 mm 2 m/s 767 mmHg 86%
    04:00 +14°C° 0 mm 2 m/s 767 mmHg 84%
    05:00 +14°C° 0 mm 2 m/s 767 mmHg 83%
    06:00 +14°C° 0 mm 2 m/s 767 mmHg 82%
    07:00 +14°C° 0 mm 2 m/s 768 mmHg 81%
    08:00 +13°C° 0 mm 3 m/s 768 mmHg 80%
    09:00 +16°C° 0 mm 3 m/s 768 mmHg 72%
    10:00 +18°C° 0 mm 3 m/s 768 mmHg 64%
    11:00 +19°C° 0 mm 2 m/s 768 mmHg 55%
    12:00 +20°C° 0 mm 2 m/s 768 mmHg 51%
    13:00 +21°C° 0 mm 2 m/s 767 mmHg 47%
    14:00 +23°C° 0 mm 2 m/s 766 mmHg 43%
    15:00 +21°C° 0 mm 2 m/s 766 mmHg 46%
    16:00 +21°C° 0 mm 2 m/s 766 mmHg 49%
    17:00 +20°C° 0 mm 2 m/s 767 mmHg 52%
    18:00 +19°C° 0 mm 3 m/s 767 mmHg 56%
    19:00 +18°C° 0 mm 3 m/s 767 mmHg 59%
    20:00 +16°C° 0 mm 3 m/s 768 mmHg 63%
    21:00 +15°C° 0 mm 4 m/s 768 mmHg 65%
    22:00 +14°C° 0 mm 4 m/s 768 mmHg 67%
    23:00 +14°C° 0 mm 4 m/s 768 mmHg 70%

    26 Mai, Duminică

    Timp Temperatura Precipitaţii Vânt Presiune Umiditate
    00:00 +14°C° 0 mm 4 m/s 768 mmHg 70%
    01:00 +13°C° 0 mm 4 m/s 768 mmHg 71%
    02:00 +13°C° 0 mm 4 m/s 768 mmHg 71%
    03:00 +13°C° 0 mm 4 m/s 768 mmHg 72%
    04:00 +13°C° 0 mm 4 m/s 768 mmHg 73%
    05:00 +13°C° 0 mm 4 m/s 768 mmHg 74%
    06:00 +13°C° 0 mm 4 m/s 768 mmHg 75%
    07:00 +13°C° 0 mm 4 m/s 768 mmHg 76%
    08:00 +13°C° 0 mm 4 m/s 769 mmHg 77%
    09:00 +15°C° 0 mm 4 m/s 769 mmHg 69%
    10:00 +18°C° 0 mm 4 m/s 768 mmHg 61%
    11:00 +19°C° 0 mm 4 m/s 768 mmHg 53%
    12:00 +20°C° 0 mm 4 m/s 768 mmHg 49%
    13:00 +21°C° 0 mm 3 m/s 767 mmHg 46%
    14:00 +22°C° 0 mm 3 m/s 766 mmHg 42%
    15:00 +22°C° 0 mm 3 m/s 766 mmHg 44%
    16:00 +21°C° 0 mm 2 m/s 766 mmHg 46%
    17:00 +20°C° 0 mm 2 m/s 766 mmHg 48%
    18:00 +19°C° 0 mm 3 m/s 767 mmHg 51%
    19:00 +18°C° 0 mm 3 m/s 767 mmHg 54%
    20:00 +17°C° 0 mm 4 m/s 767 mmHg 56%
    21:00 +17°C° 0 mm 4 m/s 767 mmHg 57%
    22:00 +15°C° 0 mm 4 m/s 767 mmHg 58%
    23:00 +15°C° 0 mm 4 m/s 767 mmHg 59%

    27 Mai, Luni

    Timp Temperatura Precipitaţii Vânt Presiune Umiditate
    00:00 +15°C° 0 mm 5 m/s 767 mmHg 59%
    01:00 +14°C° 0 mm 5 m/s 767 mmHg 60%
    02:00 +14°C° 0 mm 5 m/s 767 mmHg 60%
    03:00 +14°C° 0 mm 5 m/s 767 mmHg 61%
    04:00 +14°C° 0 mm 5 m/s 767 mmHg 61%
    05:00 +13°C° 0 mm 4 m/s 767 mmHg 62%
    06:00 +13°C° 0 mm 4 m/s 767 mmHg 62%
    07:00 +13°C° 0 mm 4 m/s 767 mmHg 62%
    08:00 +13°C° 0 mm 4 m/s 768 mmHg 61%
    09:00 +17°C° 0 mm 4 m/s 768 mmHg 55%
    10:00 +19°C° 0 mm 4 m/s 767 mmHg 49%
    11:00 +21°C° 0 mm 3 m/s 767 mmHg 42%
    12:00 +22°C° 0 mm 3 m/s 766 mmHg 40%
    13:00 +24°C° 0 mm 3 m/s 766 mmHg 37%
    14:00 +25°C° 0 mm 3 m/s 765 mmHg 34%
    15:00 +24°C° 0 mm 2 m/s 765 mmHg 36%
    16:00 +23°C° 0 mm 2 m/s 765 mmHg 38%
    17:00 +23°C° 0 mm 2 m/s 765 mmHg 40%
    18:00 +20°C° 0 mm 2 m/s 766 mmHg 41%
    19:00 +19°C° 0 mm 3 m/s 766 mmHg 43%
    20:00 +18°C° 0 mm 3 m/s 766 mmHg 44%
    21:00 +18°C° 0 mm 4 m/s 766 mmHg 45%
    22:00 +17°C° 0 mm 4 m/s 767 mmHg 45%
    23:00 +17°C° 0 mm 4 m/s 767 mmHg 46%
    Arată mai mult